| time (UTC) | temp F | wind direction | speed MPH | gust MPH | rain 1hr in | rain 24hr in | rain mn in | humidity % | barometer mb |
| 20260903205514 | 85 | 281 | 0.0 | 2.0 | 0.00 | 0.16 | 0.16 | 71 | 1012.3 |
| 20260903205008 | 85 | 322 | 1.0 | 3.0 | 0.00 | 0.16 | 0.16 | 72 | 1012.6 |
| 20260903204504 | 85 | 76 | 0.0 | 2.0 | 0.00 | 0.16 | 0.16 | 74 | 1012.3 |
| 20260903203959 | 84 | 91 | 2.0 | 5.0 | 0.00 | 0.16 | 0.16 | 71 | 1012.3 |
| 20260903203455 | 84 | 82 | 0.0 | 8.0 | 0.00 | 0.16 | 0.16 | 73 | 1012.6 |
| 20260903202954 | 85 | 29 | 1.0 | 2.0 | 0.00 | 0.16 | 0.16 | 74 | 1012.6 |
| 20260903202451 | 84 | 25 | 2.0 | 3.0 | 0.00 | 0.16 | 0.16 | 72 | 1012.8 |
| 20260903201951 | 84 | 12 | 3.0 | 3.0 | 0.00 | 0.16 | 0.16 | 74 | 1012.6 |
| 20260903201446 | 84 | 40 | 2.0 | 3.0 | 0.00 | 0.16 | 0.16 | 74 | 1012.9 |
| 20260903200944 | 84 | 69 | 2.0 | 2.0 | 0.00 | 0.16 | 0.16 | 73 | 1012.8 |
| 20260903200440 | 84 | 12 | 0.0 | 4.0 | 0.00 | 0.16 | 0.16 | 74 | 1013.0 |
| 20260903195935 | 84 | 338 | 1.0 | 3.0 | 0.00 | 0.16 | 0.16 | 74 | 1012.9 |
| 20260903195431 | 84 | 350 | 2.0 | 3.0 | 0.00 | 0.16 | 0.16 | 71 | 1013.1 |
| 20260903194926 | 84 | 351 | 0.0 | 4.0 | 0.00 | 0.16 | 0.16 | 72 | 1013.3 |
| 20260903194421 | 84 | 299 | 2.0 | 4.0 | 0.00 | 0.16 | 0.16 | 72 | 1012.9 |
| 20260903193916 | 84 | 306 | 0.0 | 1.0 | 0.00 | 0.16 | 0.16 | 73 | 1012.9 |
| 20260903193413 | 84 | 289 | 2.0 | 2.0 | 0.00 | 0.16 | 0.16 | 74 | 1012.9 |
| 20260903192907 | 83 | 11 | 0.0 | 1.0 | 0.00 | 0.16 | 0.16 | 77 | 1013.0 |
| 20260903192404 | 82 | 284 | 1.0 | 1.0 | 0.00 | 0.16 | 0.16 | 77 | 1012.9 |
| 20260903191900 | 83 | 256 | 0.0 | 0.0 | 0.00 | 0.16 | 0.16 | 76 | 1012.9 |
| 20260903191356 | 83 | 291 | 0.0 | 3.0 | 0.00 | 0.16 | 0.16 | 75 | 1013.1 |
| 20260903190855 | 84 | 164 | 1.0 | 3.0 | 0.00 | 0.16 | 0.16 | 73 | 1013.0 |
| 20260903190349 | 83 | 110 | 0.0 | 2.0 | 0.00 | 0.16 | 0.16 | 73 | 1013.0 |
| 20260903185849 | 83 | 180 | 0.0 | 1.0 | 0.00 | 0.16 | 0.16 | 75 | 1013.1 |
| 20260903185344 | 83 | 42 | 1.0 | 4.0 | 0.00 | 0.16 | 0.16 | 75 | 1012.9 |
| 20260903184840 | 83 | 83 | 2.0 | 2.0 | 0.00 | 0.16 | 0.16 | 76 | 1013.1 |
| 20260903184337 | 82 | 343 | 0.0 | 0.0 | 0.00 | 0.16 | 0.16 | 75 | 1013.2 |
| 20260903183832 | 82 | 58 | 2.0 | 2.0 | 0.00 | 0.16 | 0.16 | 76 | 1013.3 |
| 20260903183332 | 81 | 193 | 0.0 | 2.0 | 0.00 | 0.16 | 0.16 | 84 | 1013.4 |
| 20260903182831 | 80 | 325 | 0.0 | 3.0 | 0.00 | 0.16 | 0.16 | 79 | 1013.4 |
| 20260903182330 | 79 | 164 | 0.0 | 1.0 | 0.00 | 0.16 | 0.16 | 80 | 1013.2 |
| 20260903181825 | 79 | 339 | 0.0 | 2.0 | 0.00 | 0.16 | 0.16 | 79 | 1013.7 |
| 20260903181320 | 79 | 333 | 0.0 | 0.0 | 0.00 | 0.16 | 0.16 | 82 | 1013.6 |
| 20260903180820 | 78 | 8 | 1.0 | 4.0 | 0.00 | 0.16 | 0.16 | 81 | 1013.7 |
| 20260903180320 | 78 | 65 | 2.0 | 2.0 | 0.00 | 0.16 | 0.16 | 82 | 1013.7 |
| 20260903175819 | 78 | 166 | 0.0 | 2.0 | 0.00 | 0.16 | 0.16 | 83 | 1013.7 |
| 20260903175318 | 78 | 11 | 3.0 | 4.0 | 0.00 | 0.16 | 0.16 | 83 | 1014.1 |
| 20260903174814 | 78 | 3 | 2.0 | 5.0 | 0.00 | 0.16 | 0.16 | 82 | 1014.2 |
| 20260903174309 | 77 | 55 | 0.0 | 2.0 | 0.00 | 0.16 | 0.16 | 87 | 1014.1 |
| 20260903173808 | 77 | 37 | 0.0 | 3.0 | 0.00 | 0.16 | 0.16 | 85 | 1014.0 |
| 20260903173304 | 77 | 335 | 2.0 | 4.0 | 0.00 | 0.16 | 0.16 | 84 | 1014.4 |
| 20260903172800 | 77 | 311 | 2.0 | 4.0 | 0.00 | 0.16 | 0.16 | 85 | 1014.2 |
| 20260903172254 | 77 | 281 | 1.0 | 3.0 | 0.00 | 0.16 | 0.16 | 84 | 1014.5 |
| 20260903171749 | 77 | 26 | 0.0 | 4.0 | 0.00 | 0.16 | 0.16 | 86 | 1014.3 |
| 20260903171245 | 77 | 345 | 2.0 | 3.0 | 0.00 | 0.16 | 0.16 | 89 | 1014.4 |
| 20260903170744 | 75 | 7 | 0.0 | 5.0 | 0.00 | 0.16 | 0.16 | 90 | 1014.7 |
| 20260903170240 | 75 | 331 | 1.0 | 2.0 | 0.00 | 0.16 | 0.16 | 94 | 1014.4 |
| 20260903165738 | 74 | 63 | 7.0 | 7.0 | 0.00 | 0.16 | 0.16 | 94 | 1014.5 |
| 20260903165233 | 74 | 321 | 1.0 | 4.0 | 0.00 | 0.16 | 0.16 | 93 | 1014.9 |
| 20260903164733 | 74 | 328 | 2.0 | 6.0 | 0.00 | 0.16 | 0.16 | 93 | 1015.0 |
| 20260903164229 | 74 | 11 | 3.0 | 4.0 | 0.00 | 0.16 | 0.16 | 94 | 1015.0 |
| 20260903163728 | 74 | 340 | 2.0 | 4.0 | 0.00 | 0.16 | 0.16 | 93 | 1015.1 |
| 20260903163225 | 74 | 305 | 4.0 | 4.0 | 0.00 | 0.16 | 0.16 | 93 | 1015.1 |
| 20260903162721 | 75 | 7 | 3.0 | 5.0 | 0.00 | 0.16 | 0.16 | 92 | 1015.0 |
| 20260903162217 | 75 | 307 | 5.0 | 6.0 | 0.00 | 0.16 | 0.16 | 91 | 1014.9 |
| 20260903161712 | 75 | 337 | 3.0 | 7.0 | 0.00 | 0.16 | 0.16 | 91 | 1015.0 |
| 20260903161208 | 75 | 341 | 3.0 | 4.0 | 0.00 | 0.16 | 0.16 | 93 | 1014.9 |
| 20260903160703 | 75 | 349 | 2.0 | 2.0 | 0.00 | 0.16 | 0.16 | 93 | 1014.8 |
| 20260903160156 | 75 | 49 | 0.0 | 2.0 | 0.07 | 0.16 | 0.16 | 92 | 1014.9 |
| 20260903155655 | 75 | 352 | 5.0 | 6.0 | 0.26 | 0.16 | 0.16 | 90 | 1014.6 |
| 20260903155150 | 76 | 32 | 3.0 | 6.0 | 0.24 | 0.14 | 0.14 | 89 | 1014.7 |
| 20260903154646 | 77 | 29 | 4.0 | 9.0 | 0.00 | 0.10 | 0.10 | 87 | 1014.7 |
| 20260903154142 | 77 | 291 | 6.0 | 6.0 | 0.00 | 0.10 | 0.10 | 90 | 1014.5 |
| 20260903153638 | 77 | 316 | 4.0 | 5.0 | 0.09 | 0.10 | 0.10 | 89 | 1014.3 |
| 20260903153133 | 78 | 308 | 3.0 | 6.0 | 0.47 | 0.10 | 0.10 | 86 | 1014.4 |
| 20260903152629 | 80 | 24 | 7.0 | 10.0 | 0.47 | 0.08 | 0.08 | 84 | 1014.2 |
| 20260903152126 | 82 | 316 | 4.0 | 9.0 | 0.00 | 0.00 | 0.00 | 78 | 1014.1 |
| 20260903151624 | 83 | 21 | 6.0 | 8.0 | 0.00 | 0.00 | 0.00 | 75 | 1014.0 |
| 20260903151120 | 84 | 13 | 5.0 | 5.0 | 0.00 | 0.00 | 0.00 | 77 | 1013.9 |
| 20260903150620 | 85 | 343 | 1.0 | 2.0 | 0.00 | 0.00 | 0.00 | 75 | 1013.4 |
| 20260903150115 | 85 | 43 | 0.0 | 1.0 | 0.00 | 0.00 | 0.00 | 74 | 1013.5 |
| 20260903145614 | 85 | 339 | 1.0 | 2.0 | 0.00 | 0.00 | 0.00 | 72 | 1013.0 |
| 20260903145109 | 85 | 37 | 0.0 | 2.0 | 0.00 | 0.00 | 0.00 | 76 | 1013.0 |
| 20260903144608 | 85 | 346 | 0.0 | 1.0 | 0.00 | 0.00 | 0.00 | 73 | 1013.0 |
| 20260903144105 | 85 | 22 | 0.0 | 1.0 | 0.00 | 0.00 | 0.00 | 74 | 1013.0 |
| 20260903143601 | 85 | 283 | 0.0 | 1.0 | 0.00 | 0.00 | 0.00 | 72 | 1012.9 |
| 20260903143056 | 85 | 2 | 0.0 | 0.0 | 0.00 | 0.00 | 0.00 | 72 | 1013.0 |
| 20260903142551 | 85 | 25 | 0.0 | 0.0 | 0.00 | 0.00 | 0.00 | 72 | 1013.0 |
| 20260903142048 | 85 | 287 | 2.0 | 3.0 | 0.00 | 0.00 | 0.00 | 72 | 1013.1 |
| 20260903141543 | 85 | 269 | 0.0 | 0.0 | 0.00 | 0.00 | 0.00 | 71 | 1012.9 |
| 20260903141038 | 85 | 22 | 0.0 | 0.0 | 0.00 | 0.00 | 0.00 | 70 | 1012.8 |
| 20260903140534 | 86 | 304 | 0.0 | 1.0 | 0.00 | 0.00 | 0.00 | 69 | 1012.8 |
| 20260903140035 | 86 | 242 | 0.0 | 5.0 | 0.00 | 0.00 | 0.00 | 70 | 1012.9 |
| 20260903135530 | 86 | 291 | 3.0 | 5.0 | 0.00 | 0.00 | 0.00 | 69 | 1012.8 |
| 20260903135025 | 85 | 269 | 0.0 | 1.0 | 0.00 | 0.00 | 0.00 | 72 | 1012.7 |
| 20260903134524 | 85 | 333 | 0.0 | 0.0 | 0.00 | 0.00 | 0.00 | 75 | 1012.9 |
| 20260903134020 | 84 | 343 | 0.0 | 1.0 | 0.00 | 0.00 | 0.00 | 76 | 1012.9 |
| 20260903133518 | 83 | 304 | 0.0 | 0.0 | 0.00 | 0.00 | 0.00 | 76 | 1012.8 |
| 20260903133013 | 82 | 243 | 0.0 | 0.0 | 0.00 | 0.00 | 0.00 | 76 | 1012.8 |
| 20260903132508 | 82 | 95 | 0.0 | 0.0 | 0.00 | 0.00 | 0.00 | 78 | 1012.8 |
| 20260903132003 | 82 | 145 | 0.0 | 1.0 | 0.00 | 0.00 | 0.00 | 79 | 1012.5 |
| 20260903131458 | 82 | 341 | 0.0 | 1.0 | 0.00 | 0.00 | 0.00 | 79 | 1012.8 |
| 20260903130956 | 82 | 120 | 0.0 | 1.0 | 0.00 | 0.00 | 0.00 | 78 | 1012.7 |
| 20260903130452 | 82 | 41 | 0.0 | 1.0 | 0.00 | 0.00 | 0.00 | 79 | 1012.6 |
| 20260903125950 | 81 | 55 | 0.0 | 1.0 | 0.00 | 0.00 | 0.00 | 81 | 1012.7 |
| 20260903125445 | 79 | 32 | 0.0 | 1.0 | 0.00 | 0.00 | 0.00 | 84 | 1013.0 |
| 20260903124944 | 78 | 129 | 0.0 | 1.0 | 0.00 | 0.00 | 0.00 | 86 | 1013.0 |
| 20260903124440 | 77 | 89 | 0.0 | 1.0 | 0.00 | 0.00 | 0.00 | 88 | 1012.8 |
| 20260903123938 | 77 | 67 | 0.0 | 2.0 | 0.00 | 0.00 | 0.00 | 89 | 1012.9 |
| 20260903123433 | 77 | 32 | 0.0 | 2.0 | 0.00 | 0.00 | 0.00 | 89 | 1013.0 |
| 20260903122932 | 76 | 57 | 0.0 | 1.0 | 0.00 | 0.00 | 0.00 | 90 | 1013.0 |
| 20260903122426 | 76 | 28 | 0.0 | 1.0 | 0.00 | 0.00 | 0.00 | 90 | 1012.9 |
| 20260903121925 | 76 | 113 | 0.0 | 1.0 | 0.00 | 0.00 | 0.00 | 91 | 1012.9 |
| 20260903121420 | 76 | 89 | 0.0 | 2.0 | 0.00 | 0.00 | 0.00 | 91 | 1012.9 |
| 20260903120917 | 75 | 51 | 3.0 | 3.0 | 0.00 | 0.00 | 0.00 | 92 | 1012.9 |
| 20260903120415 | 75 | 53 | 2.0 | 2.0 | 0.00 | 0.00 | 0.00 | 92 | 1012.8 |
| 20260903115914 | 75 | 68 | 1.0 | 2.0 | 0.00 | 0.00 | 0.00 | 92 | 1013.0 |
| 20260903115409 | 75 | 89 | 0.0 | 1.0 | 0.00 | 0.00 | 0.00 | 92 | 1013.1 |
| 20260903114909 | 75 | 55 | 0.0 | 2.0 | 0.00 | 0.00 | 0.00 | 92 | 1013.1 |
| 20260903114405 | 75 | 76 | 0.0 | 1.0 | 0.00 | 0.00 | 0.00 | 93 | 1013.1 |
| 20260903113900 | 75 | 131 | 0.0 | 2.0 | 0.00 | 0.00 | 0.00 | 92 | 1013.0 |
| 20260903113356 | 75 | 129 | 0.0 | 2.0 | 0.00 | 0.00 | 0.00 | 92 | 1013.1 |
| 20260903112851 | 75 | 33 | 2.0 | 2.0 | 0.00 | 0.00 | 0.00 | 92 | 1012.9 |
| 20260903112347 | 75 | 69 | 1.0 | 2.0 | 0.00 | 0.00 | 0.00 | 92 | 1012.9 |
| 20260903111846 | 75 | 65 | 0.0 | 1.0 | 0.00 | 0.00 | 0.00 | 92 | 1013.0 |
| 20260903111345 | 75 | 169 | 1.0 | 1.0 | 0.00 | 0.00 | 0.00 | 93 | 1012.9 |
| 20260903110842 | 75 | 110 | 1.0 | 2.0 | 0.00 | 0.00 | 0.00 | 93 | 1012.6 |
| 20260903110337 | 75 | 53 | 0.0 | 2.0 | 0.00 | 0.00 | 0.00 | 93 | 1012.8 |
| 20260903105832 | 75 | 76 | 0.0 | 2.0 | 0.00 | 0.00 | 0.00 | 94 | 1013.0 |
| 20260903105327 | 75 | 151 | 0.0 | 1.0 | 0.00 | 0.00 | 0.00 | 94 | 1013.0 |
| 20260903104826 | 75 | 78 | 1.0 | 2.0 | 0.00 | 0.00 | 0.00 | 94 | 1012.8 |
| 20260903104321 | 75 | 70 | 1.0 | 2.0 | 0.00 | 0.00 | 0.00 | 94 | 1012.6 |
| 20260903103818 | 75 | 71 | 1.0 | 2.0 | 0.00 | 0.00 | 0.00 | 94 | 1012.8 |
| 20260903103314 | 75 | 58 | 1.0 | 2.0 | 0.00 | 0.00 | 0.00 | 94 | 1012.8 |
| 20260903102810 | 75 | 143 | 1.0 | 1.0 | 0.00 | 0.00 | 0.00 | 95 | 1012.7 |
| 20260903102309 | 75 | 53 | 0.0 | 1.0 | 0.00 | 0.00 | 0.00 | 95 | 1012.5 |
| 20260903101809 | 75 | 95 | 0.0 | 1.0 | 0.00 | 0.00 | 0.00 | 95 | 1012.7 |
| 20260903101304 | 75 | 57 | 1.0 | 2.0 | 0.00 | 0.00 | 0.00 | 94 | 1012.7 |
| 20260903100800 | 75 | 64 | 1.0 | 2.0 | 0.00 | 0.00 | 0.00 | 94 | 1012.7 |
| 20260903100300 | 75 | 76 | 1.0 | 2.0 | 0.00 | 0.00 | 0.00 | 94 | 1012.9 |
| 20260903095757 | 75 | 62 | 2.0 | 2.0 | 0.00 | 0.00 | 0.00 | 94 | 1012.8 |
| 20260903095251 | 75 | 52 | 1.0 | 2.0 | 0.00 | 0.00 | 0.00 | 94 | 1012.8 |
| 20260903094747 | 75 | 69 | 1.0 | 1.0 | 0.00 | 0.00 | 0.00 | 94 | 1012.8 |
| 20260903094242 | 75 | 78 | 1.0 | 1.0 | 0.00 | 0.00 | 0.00 | 94 | 1012.7 |
| 20260903093737 | 75 | 71 | 2.0 | 2.0 | 0.00 | 0.00 | 0.00 | 94 | 1012.8 |
| 20260903093232 | 75 | 79 | 1.0 | 2.0 | 0.00 | 0.00 | 0.00 | 94 | 1012.9 |
| 20260903092732 | 75 | 76 | 0.0 | 1.0 | 0.00 | 0.00 | 0.00 | 93 | 1012.8 |
| 20260903092227 | 76 | 49 | 1.0 | 2.0 | 0.00 | 0.00 | 0.00 | 93 | 1012.9 |
| 20260903091726 | 76 | 59 | 2.0 | 2.0 | 0.00 | 0.00 | 0.00 | 93 | 1012.9 |
| 20260903091220 | 76 | 68 | 1.0 | 2.0 | 0.00 | 0.00 | 0.00 | 93 | 1012.9 |
| 20260903090716 | 76 | 67 | 1.0 | 2.0 | 0.00 | 0.00 | 0.00 | 92 | 1012.7 |
| 20260903090214 | 76 | 64 | 1.0 | 2.0 | 0.00 | 0.00 | 0.00 | 92 | 1012.6 |
| 20260903085714 | 76 | 57 | 0.0 | 2.0 | 0.00 | 0.00 | 0.00 | 92 | 1012.7 |
| 20260903085209 | 76 | 63 | 2.0 | 2.0 | 0.00 | 0.00 | 0.00 | 92 | 1012.7 |
| 20260903084706 | 76 | 93 | 0.0 | 1.0 | 0.00 | 0.00 | 0.00 | 92 | 1012.8 |
| 20260903084201 | 76 | 29 | 2.0 | 3.0 | 0.00 | 0.00 | 0.00 | 92 | 1013.0 |
| 20260903083658 | 76 | 72 | 1.0 | 1.0 | 0.00 | 0.00 | 0.00 | 92 | 1012.7 |
| 20260903083157 | 76 | 59 | 1.0 | 2.0 | 0.00 | 0.00 | 0.00 | 91 | 1012.6 |
| 20260903082651 | 77 | 59 | 0.0 | 1.0 | 0.00 | 0.00 | 0.00 | 91 | 1012.7 |
| 20260903082148 | 77 | 56 | 1.0 | 2.0 | 0.00 | 0.00 | 0.00 | 91 | 1012.9 |
| 20260903081642 | 77 | 38 | 1.0 | 2.0 | 0.00 | 0.00 | 0.00 | 90 | 1012.6 |
| 20260903081138 | 77 | 57 | 1.0 | 2.0 | 0.00 | 0.00 | 0.00 | 89 | 1012.8 |
| 20260903080634 | 78 | 60 | 1.0 | 1.0 | 0.00 | 0.00 | 0.00 | 88 | 1012.6 |
| 20260903080132 | 78 | 78 | 1.0 | 1.0 | 0.00 | 0.00 | 0.00 | 88 | 1012.6 |
| 20260903075630 | 78 | 84 | 1.0 | 1.0 | 0.00 | 0.00 | 0.00 | 88 | 1012.5 |
| 20260903075126 | 78 | 70 | 1.0 | 1.0 | 0.00 | 0.00 | 0.00 | 88 | 1012.5 |
| 20260903074625 | 78 | 86 | 1.0 | 1.0 | 0.00 | 0.00 | 0.00 | 89 | 1012.5 |
| 20260903074126 | 77 | 62 | 0.0 | 1.0 | 0.00 | 0.00 | 0.00 | 89 | 1012.5 |
| 20260903073621 | 77 | 71 | 0.0 | 1.0 | 0.00 | 0.00 | 0.00 | 89 | 1012.3 |
| 20260903073116 | 77 | 59 | 1.0 | 1.0 | 0.00 | 0.00 | 0.00 | 89 | 1012.5 |
| 20260903072612 | 77 | 96 | 1.0 | 1.0 | 0.00 | 0.00 | 0.00 | 89 | 1012.5 |
| 20260903072108 | 77 | 81 | 0.0 | 1.0 | 0.00 | 0.00 | 0.00 | 90 | 1012.5 |
| 20260903071605 | 77 | 65 | 0.0 | 1.0 | 0.00 | 0.00 | 0.00 | 90 | 1012.4 |
| 20260903071105 | 78 | 67 | 1.0 | 1.0 | 0.00 | 0.00 | 0.00 | 90 | 1012.7 |
| 20260903070605 | 78 | 36 | 1.0 | 1.0 | 0.00 | 0.00 | 0.00 | 89 | 1012.7 |
| 20260903070101 | 78 | 75 | 0.0 | 1.0 | 0.00 | 0.00 | 0.00 | 89 | 1012.5 |
| 20260903065559 | 78 | 53 | 0.0 | 1.0 | 0.00 | 0.00 | 0.00 | 89 | 1012.6 |
| 20260903065055 | 78 | 67 | 0.0 | 1.0 | 0.00 | 0.00 | 0.00 | 89 | 1012.7 |
| 20260903064554 | 78 | 71 | 1.0 | 1.0 | 0.00 | 0.00 | 0.00 | 88 | 1012.5 |
| 20260903064049 | 78 | 89 | 0.0 | 1.0 | 0.00 | 0.00 | 0.00 | 88 | 1012.6 |
| 20260903063545 | 78 | 50 | 1.0 | 1.0 | 0.00 | 0.00 | 0.00 | 87 | 1012.6 |
| 20260903063040 | 79 | 40 | 0.0 | 1.0 | 0.00 | 0.00 | 0.00 | 87 | 1012.8 |
| 20260903062535 | 79 | 62 | 0.0 | 1.0 | 0.00 | 0.00 | 0.00 | 87 | 1012.9 |
| 20260903062031 | 79 | 69 | 0.0 | 1.0 | 0.00 | 0.00 | 0.00 | 87 | 1012.6 |
| 20260903061526 | 79 | 62 | 0.0 | 0.0 | 0.00 | 0.00 | 0.00 | 87 | 1012.8 |
| 20260903061026 | 79 | 47 | 0.0 | 1.0 | 0.00 | 0.00 | 0.00 | 87 | 1012.6 |
| 20260903060526 | 79 | 75 | 0.0 | 1.0 | 0.00 | 0.00 | 0.00 | 87 | 1012.7 |
| 20260903060021 | 79 | 62 | 0.0 | 1.0 | 0.00 | 0.00 | 0.00 | 87 | 1012.7 |
| 20260903055518 | 79 | 44 | 0.0 | 1.0 | 0.00 | 0.00 | 0.00 | 87 | 1012.8 |
| 20260903055017 | 79 | 62 | 0.0 | 1.0 | 0.00 | 0.00 | 0.00 | 87 | 1013.0 |
| 20260903054512 | 79 | 37 | 0.0 | 1.0 | 0.00 | 0.00 | 0.00 | 87 | 1012.8 |
| 20260903054009 | 79 | 63 | 0.0 | 0.0 | 0.00 | 0.00 | 0.00 | 87 | 1012.8 |
| 20260903053508 | 80 | 37 | 0.0 | 1.0 | 0.00 | 0.00 | 0.00 | 87 | 1012.8 |
| 20260903053005 | 80 | 72 | 1.0 | 2.0 | 0.00 | 0.00 | 0.00 | 87 | 1012.6 |
| 20260903052500 | 80 | 75 | 0.0 | 1.0 | 0.00 | 0.00 | 0.00 | 86 | 1012.6 |
| 20260903051956 | 80 | 89 | 0.0 | 1.0 | 0.00 | 0.00 | 0.00 | 86 | 1012.8 |
| 20260903051450 | 80 | 31 | 0.0 | 1.0 | 0.00 | 0.00 | 0.00 | 87 | 1012.9 |
| 20260903050946 | 80 | 55 | 0.0 | 0.0 | 0.00 | 0.00 | 0.00 | 86 | 1012.7 |
| 20260903050445 | 80 | 37 | 0.0 | 1.0 | 0.00 | 0.00 | 0.00 | 86 | 1012.7 |
| 20260903045940 | 80 | 45 | 0.0 | 0.0 | 0.00 | 0.00 | 0.00 | 86 | 1012.9 |
| 20260903045436 | 80 | 180 | 0.0 | 0.0 | 0.00 | 0.00 | 0.00 | 86 | 1012.6 |
| 20260903044932 | 80 | 189 | 0.0 | 1.0 | 0.00 | 0.00 | 0.00 | 86 | 1012.4 |
| 20260903044432 | 80 | 104 | 0.0 | 1.0 | 0.00 | 0.00 | 0.00 | 87 | 1012.5 |
| 20260903043929 | 80 | 135 | 0.0 | 1.0 | 0.00 | 0.00 | 0.00 | 87 | 1012.6 |
| 20260903043424 | 79 | 50 | 0.0 | 0.0 | 0.00 | 0.00 | 0.00 | 88 | 1012.7 |
| 20260903042922 | 79 | 37 | 0.0 | 0.0 | 0.00 | 0.00 | 0.00 | 88 | 1012.6 |
| 20260903042418 | 80 | 50 | 0.0 | 0.0 | 0.00 | 0.00 | 0.00 | 87 | 1012.6 |
| 20260903041914 | 80 | 37 | 0.0 | 0.0 | 0.00 | 0.00 | 0.00 | 87 | 1012.6 |
| 20260903041410 | 80 | 135 | 0.0 | 1.0 | 0.00 | 0.00 | 0.00 | 87 | 1012.5 |
| 20260903040906 | 80 | 89 | 0.0 | 1.0 | 0.00 | 0.00 | 0.00 | 87 | 1012.6 |
| 20260903040404 | 80 | 135 | 0.0 | 0.0 | 0.00 | 0.00 | 0.00 | 87 | 1012.6 |
| 20260903035901 | 80 | 15 | 0.0 | 0.0 | 0.00 | 0.00 | 0.00 | 86 | 1012.6 |
| 20260903035356 | 80 | 124 | 0.0 | 1.0 | 0.00 | 0.00 | 0.00 | 86 | 1012.5 |
| 20260903034851 | 80 | 66 | 0.0 | 0.0 | 0.00 | 0.00 | 0.00 | 86 | 1012.5 |
| 20260903034346 | 80 | 113 | 0.0 | 1.0 | 0.00 | 0.00 | 0.00 | 87 | 1012.7 |
| 20260903033842 | 80 | 55 | 0.0 | 1.0 | 0.00 | 0.00 | 0.00 | 87 | 1012.6 |
| 20260903033337 | 80 | 77 | 0.0 | 1.0 | 0.00 | 0.00 | 0.00 | 87 | 1012.5 |
| 20260903032836 | 80 | 55 | 0.0 | 1.0 | 0.00 | 0.00 | 0.00 | 87 | 1012.5 |
| 20260903032332 | 80 | 55 | 0.0 | 1.0 | 0.00 | 0.00 | 0.00 | 87 | 1012.7 |
| 20260903031827 | 80 | 62 | 0.0 | 0.0 | 0.00 | 0.00 | 0.00 | 86 | 1012.6 |
| 20260903031326 | 80 | 38 | 0.0 | 1.0 | 0.00 | 0.00 | 0.00 | 86 | 1012.4 |
| 20260903030822 | 80 | 32 | 0.0 | 1.0 | 0.00 | 0.00 | 0.00 | 86 | 1012.5 |
| 20260903030318 | 80 | 54 | 0.0 | 1.0 | 0.00 | 0.00 | 0.00 | 85 | 1012.5 |
| 20260903025814 | 81 | 40 | 0.0 | 1.0 | 0.00 | 0.00 | 0.00 | 85 | 1012.4 |
| 20260903025309 | 81 | 55 | 0.0 | 1.0 | 0.00 | 0.00 | 0.00 | 84 | 1012.6 |
| 20260903024803 | 81 | 124 | 0.0 | 0.0 | 0.00 | 0.00 | 0.00 | 83 | 1012.4 |
| 20260903024303 | 81 | 164 | 0.0 | 0.0 | 0.00 | 0.00 | 0.00 | 83 | 1012.4 |
| 20260903023759 | 81 | 164 | 0.0 | 0.0 | 0.00 | 0.00 | 0.00 | 83 | 1012.3 |
| 20260903023255 | 81 | 147 | 0.0 | 1.0 | 0.00 | 0.00 | 0.00 | 83 | 1012.5 |
| 20260903022754 | 81 | 154 | 0.0 | 1.0 | 0.00 | 0.00 | 0.00 | 83 | 1012.4 |
| 20260903022253 | 81 | 124 | 0.0 | 1.0 | 0.00 | 0.00 | 0.00 | 84 | 1012.4 |
| 20260903021753 | 80 | 117 | 0.0 | 0.0 | 0.00 | 0.00 | 0.00 | 85 | 1012.4 |
| 20260903021248 | 80 | 52 | 0.0 | 1.0 | 0.00 | 0.00 | 0.00 | 86 | 1012.6 |
| 20260903020743 | 80 | 124 | 0.0 | 1.0 | 0.00 | 0.00 | 0.00 | 86 | 1012.4 |
| 20260903020243 | 80 | 50 | 0.0 | 1.0 | 0.00 | 0.00 | 0.00 | 86 | 1012.5 |
| 20260903015738 | 80 | 47 | 0.0 | 1.0 | 0.00 | 0.00 | 0.00 | 86 | 1012.5 |
| 20260903015234 | 80 | 69 | 0.0 | 1.0 | 0.00 | 0.00 | 0.00 | 85 | 1012.5 |
| 20260903014729 | 80 | 62 | 1.0 | 1.0 | 0.00 | 0.00 | 0.00 | 85 | 1012.3 |
| 20260903014228 | 80 | 53 | 1.0 | 1.0 | 0.00 | 0.00 | 0.00 | 85 | 1012.4 |
| 20260903013724 | 81 | 43 | 0.0 | 2.0 | 0.00 | 0.00 | 0.00 | 84 | 1012.3 |
| 20260903013222 | 81 | 40 | 1.0 | 2.0 | 0.00 | 0.00 | 0.00 | 83 | 1012.2 |
| 20260903012721 | 81 | 43 | 0.0 | 1.0 | 0.00 | 0.00 | 0.00 | 82 | 1012.0 |
| 20260903012221 | 82 | 40 | 0.0 | 1.0 | 0.00 | 0.00 | 0.00 | 81 | 1011.9 |
| 20260903011716 | 82 | 44 | 0.0 | 1.0 | 0.00 | 0.00 | 0.00 | 80 | 1011.8 |
| 20260903011210 | 82 | 50 | 0.0 | 0.0 | 0.00 | 0.00 | 0.00 | 79 | 1012.0 |
| 20260903010706 | 83 | 44 | 0.0 | 0.0 | 0.00 | 0.00 | 0.00 | 79 | 1012.0 |
| 20260903010205 | 83 | 50 | 0.0 | 0.0 | 0.00 | 0.00 | 0.00 | 78 | 1011.8 |
| 20260903005704 | 83 | 19 | 0.0 | 0.0 | 0.00 | 0.00 | 0.00 | 78 | 1011.7 |
| 20260903005159 | 83 | 40 | 0.0 | 0.0 | 0.00 | 0.00 | 0.00 | 79 | 1011.5 |
| 20260903004655 | 83 | 62 | 0.0 | 0.0 | 0.00 | 0.00 | 0.00 | 78 | 1011.6 |
| 20260903004149 | 83 | 37 | 0.0 | 0.0 | 0.00 | 0.00 | 0.00 | 78 | 1011.5 |
| 20260903003645 | 84 | 62 | 0.0 | 1.0 | 0.00 | 0.00 | 0.00 | 76 | 1011.4 |
| 20260903003140 | 84 | 36 | 0.0 | 1.0 | 0.00 | 0.00 | 0.00 | 75 | 1011.6 |
| 20260903002636 | 85 | 67 | 1.0 | 1.0 | 0.00 | 0.00 | 0.00 | 74 | 1011.5 |
| 20260903002131 | 85 | 50 | 0.0 | 1.0 | 0.00 | 0.00 | 0.00 | 74 | 1011.6 |
| 20260903001625 | 85 | 34 | 0.0 | 1.0 | 0.00 | 0.00 | 0.00 | 73 | 1011.6 |
| 20260903001124 | 85 | 62 | 0.0 | 1.0 | 0.00 | 0.00 | 0.00 | 73 | 1011.6 |
| 20260903000621 | 86 | 40 | 0.0 | 1.0 | 0.00 | 0.00 | 0.00 | 72 | 1011.7 |
| 20260903000119 | 86 | 104 | 0.0 | 1.0 | 0.00 | 0.00 | 0.00 | 71 | 1011.4 |
| 20260902235618 | 86 | 89 | 0.0 | 0.0 | 0.00 | 0.00 | 0.00 | 71 | 1011.5 |
| 20260902235114 | 87 | 72 | 0.0 | 1.0 | 0.00 | 0.00 | 0.00 | 70 | 1011.4 |
| 20260902234608 | 87 | 322 | 0.0 | 0.0 | 0.00 | 0.00 | 0.00 | 70 | 1011.4 |
| 20260902234106 | 87 | 25 | 0.0 | 0.0 | 0.00 | 0.00 | 0.00 | 69 | 1011.3 |
| 20260902233602 | 88 | 180 | 0.0 | 1.0 | 0.00 | 0.00 | 0.00 | 68 | 1011.3 |
| 20260902233102 | 89 | 195 | 0.0 | 0.0 | 0.00 | 0.00 | 0.00 | 67 | 1011.5 |
| 20260902232556 | 89 | 130 | 0.0 | 2.0 | 0.00 | 0.00 | 0.00 | 67 | 1011.3 |
| 20260902232056 | 89 | 38 | 0.0 | 1.0 | 0.00 | 0.00 | 0.00 | 66 | 1011.2 |
| 20260902231555 | 89 | 180 | 0.0 | 2.0 | 0.00 | 0.00 | 0.00 | 66 | 1011.2 |
| 20260902231050 | 89 | 154 | 0.0 | 0.0 | 0.00 | 0.00 | 0.00 | 65 | 1011.3 |
| 20260902230550 | 90 | 164 | 0.0 | 0.0 | 0.00 | 0.00 | 0.00 | 64 | 1011.3 |
| 20260902230049 | 90 | 129 | 0.0 | 1.0 | 0.00 | 0.00 | 0.00 | 63 | 1011.4 |
| 20260902225545 | 90 | 129 | 0.0 | 1.0 | 0.00 | 0.00 | 0.00 | 64 | 1011.5 |
| 20260902225044 | 90 | 354 | 0.0 | 2.0 | 0.00 | 0.00 | 0.00 | 64 | 1011.5 |
| 20260902224543 | 90 | 240 | 0.0 | 0.0 | 0.00 | 0.00 | 0.00 | 61 | 1011.4 |
| 20260902224039 | 90 | 212 | 0.0 | 0.0 | 0.00 | 0.00 | 0.00 | 62 | 1011.5 |
| 20260902223536 | 90 | 80 | 0.0 | 1.0 | 0.00 | 0.00 | 0.00 | 65 | 1011.6 |
| 20260902223034 | 90 | 164 | 0.0 | 0.0 | 0.00 | 0.00 | 0.00 | 61 | 1011.5 |
| 20260902222533 | 90 | 154 | 0.0 | 1.0 | 0.00 | 0.00 | 0.00 | 62 | 1011.8 |
| 20260902222032 | 90 | 160 | 0.0 | 0.0 | 0.00 | 0.00 | 0.00 | 60 | 1011.6 |
| 20260902221527 | 91 | 269 | 0.0 | 0.0 | 0.00 | 0.00 | 0.00 | 58 | 1011.8 |
| 20260902221022 | 91 | 224 | 0.0 | 1.0 | 0.00 | 0.00 | 0.00 | 59 | 1011.7 |
| 20260902220517 | 91 | 337 | 0.0 | 1.0 | 0.00 | 0.00 | 0.00 | 60 | 1011.5 |
| 20260902220012 | 91 | 290 | 0.0 | 3.0 | 0.00 | 0.00 | 0.00 | 57 | 1011.7 |
| 20260902215508 | 92 | 230 | 0.0 | 0.0 | 0.00 | 0.00 | 0.00 | 57 | 1011.7 |
| 20260902215003 | 92 | 3 | 0.0 | 2.0 | 0.00 | 0.00 | 0.00 | 57 | 1011.5 |
| 20260902214503 | 92 | 269 | 0.0 | 1.0 | 0.00 | 0.00 | 0.00 | 57 | 1011.9 |
| 20260902214001 | 92 | 256 | 1.0 | 2.0 | 0.00 | 0.00 | 0.00 | 58 | 1011.7 |
| 20260902213458 | 93 | 294 | 3.0 | 4.0 | 0.00 | 0.00 | 0.00 | 54 | 1011.8 |
| 20260902212956 | 93 | 287 | 0.0 | 1.0 | 0.00 | 0.00 | 0.00 | 50 | 1011.8 |
| 20260902212453 | 93 | 269 | 0.0 | 3.0 | 0.00 | 0.00 | 0.00 | 49 | 1011.7 |
| 20260902211949 | 93 | 307 | 1.0 | 2.0 | 0.00 | 0.00 | 0.00 | 49 | 1011.6 |
| 20260902211444 | 93 | 285 | 1.0 | 2.0 | 0.00 | 0.00 | 0.00 | 55 | 1011.8 |
| 20260902210939 | 93 | 288 | 4.0 | 5.0 | 0.00 | 0.00 | 0.00 | 53 | 1011.8 |
| 20260902210434 | 93 | 233 | 0.0 | 2.0 | 0.00 | 0.00 | 0.00 | 55 | 1011.8 |
| 20260902205932 | 93 | 266 | 0.0 | 2.0 | 0.00 | 0.00 | 0.00 | 59 | 1011.9 |